User: anonymous   Login
Location: �chenoz-la-M�line
(47.6009°N, 6.1354°E)
Time: 19:28:13
(UTC+00:00)
Language:

Meteor 1-11 - Orbit

View from above orbital plane
View from above orbital plane
View from above satellite
View from above satellite

Ground track
Ground track

The orbit data is extracted from the following two-line orbital elements,

1 05917U 72022A   21126.93415833  .00000011  00000-0 -63797-6 0  9994
2 05917  81.2227 303.5738 0032581 197.8556 162.1473 14.08727301521549
Epoch (UTC): 06 May 2021 22:25:11
Eccentricity: 0.0032581
inclination: 81.2227°
perigee height: 840 km
apogee height: 887 km
right ascension of ascending node: 303.5738°
argument of perigee: 197.8556°
revolutions per day: 14.08727301
mean anomaly at epoch: 162.1473°
orbit number at epoch: 52154

The dashed part of the orbit path shows where the satellite is in the earth's shadow,  

DLR